Tracking 31023 objects as of 19-Jul-2025
HD Live streaming from Space Station
objects crossing your sky now

SL-14 DEB

Track SL-14 DEB now!
10-day predictions


NORAD ID: 45276
Int'l Code: 1991-056N
Perigee: 1,121.8 km
Apogee: 1,196.6 km
Inclination: 82.6 °
Period: 108.4 minutes
Semi major axis: 7530 km
RCS: Unknown
Launch date: August 15, 1991
Source: Commonwealth of Independent States (former USSR) (CIS)
Launch site: PLESETSK MISSILE AND SPACE COMPLEX (PKMTR)

Note: This is SATELLITE DEBRIS
Your satellite tracking list
Your tracking list is empty




NASA's NSSDC Master Catalog

Two Line Element Set (TLE):
1 45276U 91056N   25200.51385278  .00000000  00000-0 -29173-4 0  9990
2 45276  82.5894 355.5318 0049614  82.3649 278.3111 13.28598141262935
Source of the keplerian elements: AFSPC